Location: Lawrence
(38.9720°N, 95.2350°W)
Time: 22:18:39
(UTC-05:00)

Amateur Radio Satellites - All Passes

Search period start: 24 May 2016 21:48
Search period end: 25 May 2016 21:48
Location: Lawrence, 38.9720°N, 95.2350°W

Satellite Date Start Highest point End Downlink Frequencies (MHz)
Time Altitude Azimuth
UWE-3 24 May 21:49:40 21:54:02 76° 258° (WSW) 21:58:19 435.000/436.395/437.385
AIST 1 24 May 21:52:13 21:56:19 40° 92° (E) 22:00:28
Cosmos 2499 24 May 21:56:09 21:59:31 14° 77° (ENE) 22:02:58 435.465 / 435.565
COMPASS 1 24 May 22:00:15 22:03:33 23° 265° (W) 22:06:53 437.405
HUMSAT D 24 May 22:01:36 22:04:42 21° 69° (ENE) 22:07:48 437.325/437.525
FUNcube-1 24 May 22:03:14 22:07:31 86° 257° (WSW) 22:11:44 145.935
AAUSAT CUBESAT 2 24 May 22:05:58 22:09:21 25° 265° (W) 22:12:47 437.432
ISS 24 May 22:12:54 22:15:17 19° 131° (SE) 22:17:41 145.825
PRISM 24 May 22:15:03 22:19:05 47° 287° (WNW) 22:23:04 437.425
STRAND 1 24 May 22:22:39 22:24:36 12° 300° (WNW) 22:26:34 437.568
BEESAT 2 24 May 22:39:31 22:43:28 65° 242° (WSW) 22:47:24 435.950
DANDE 24 May 22:39:39 22:44:23 16° 60° (ENE) 22:49:00 436.750
AIST 2 24 May 22:45:54 22:47:21 12° 42° (NE) 22:48:48 435.215
Oscar 11 24 May 22:52:59 22:56:08 20° 266° (W) 22:59:19 145.826/435.025
CUBEBUG 2 24 May 22:54:12 22:55:19 11° 269° (W) 22:56:26 437.445
ANTELSAT 24 May 22:56:56 23:00:17 22° 95° (E) 23:03:40 437.575/2403.000
50 SAT 24 May 22:58:42 22:59:32 11° 65° (ENE) 23:00:21 437.505
ZACube-1 24 May 23:01:02 23:03:59 18° 266° (W) 23:06:55 437.345
RS-15 24 May 23:01:14 23:09:09 19° 354° (N) 23:17:17 29.354- 29.394
VELOX 1 24 May 23:01:53 23:04:16 14° 64° (ENE) 23:06:41 145.980
DELFI C3 24 May 23:02:56 23:06:21 28° 263° (W) 23:09:50 145.870
CUBEBUG 1 24 May 23:03:27 23:05:57 15° 65° (ENE) 23:08:27 437.445
DX 1 24 May 23:07:52 23:10:09 14° 64° (ENE) 23:12:25 434.975-435.025
CUSAT 1 24 May 23:14:35 23:22:07 45° 73° (ENE) 23:28:35 437.405
BEESAT 3 24 May 23:22:45 23:24:19 12° 252° (WSW) 23:25:53 437.485
AIST 1 24 May 23:31:24 23:34:07 16° 288° (WNW) 23:36:50
GONETS M04 24 May 23:31:37 23:40:22 67° 280° (W) 23:49:08
AISAT 24 May 23:35:37 23:39:38 34° 71° (ENE) 23:43:42 437.250
HUMSAT D 24 May 23:36:39 23:40:10 27° 264° (W) 23:43:41 437.325/437.525
DUCHIFAT 1 24 May 23:43:39 23:44:17 10° 90° (E) 23:44:55 145.980
Cosmos 2499 24 May 23:44:09 23:51:18 88° 273° (W) 23:58:59 435.465 / 435.565
SPROUT 24 May 23:45:08 23:47:42 16° 65° (ENE) 23:50:15 437.525
ISS 24 May 23:48:24 23:51:31 41° 327° (NNW) 23:54:39 145.825
UNISAT 6 24 May 23:51:27 23:55:45 86° 286° (WNW) 00:00:06 437.425
ESTCUBE 1 25 May 00:00:08 00:04:39 89° 66° (ENE) 00:09:12 437.505/2401.250
TIGRISAT 25 May 00:00:09 00:04:25 73° 284° (WNW) 00:08:43 435.000
PHONESAT 2.4 25 May 00:00:19 00:03:14 36° 155° (SSE) 00:06:09 2401.200-2431.200
UKube-1 25 May 00:01:04 00:05:08 42° 72° (ENE) 00:09:14 .
BUGSAT 1 25 May 00:15:12 00:15:55 10° 91° (E) 00:16:38 437.445
POPSAT HIP 1 25 May 00:15:24 00:19:02 28° 96° (E) 00:22:40 437.405
QB50P1 25 May 00:16:05 00:19:47 29° 97° (E) 00:23:26 145.935-145.965
QB50P2 25 May 00:17:09 00:20:57 32° 97° (E) 00:24:43 145.880/145.840
POLYITAN 1 25 May 00:19:34 00:23:22 32° 97° (E) 00:27:09 437.675
DANDE 25 May 00:20:13 00:28:42 73° 79° (E) 00:36:30 436.750
AIST 2 25 May 00:22:15 00:26:25 86° 240° (WSW) 00:30:33 435.215
TISAT 1 25 May 00:22:41 00:23:50 11° 63° (ENE) 00:24:59 437.305
50 SAT 25 May 00:29:20 00:32:48 46° 260° (W) 00:36:20 437.505
ANTELSAT 25 May 00:33:17 00:37:00 29° 290° (WNW) 00:40:45 437.575/2403.000
VELOX 1 25 May 00:35:55 00:40:16 53° 260° (W) 00:44:40 145.980
NANOSAT C BR1 25 May 00:36:05 00:40:09 48° 100° (E) 00:44:12 145.865
CUBEBUG 1 25 May 00:37:29 00:41:47 50° 260° (W) 00:46:07 437.445
DX 1 25 May 00:41:35 00:45:52 53° 259° (W) 00:50:11 434.975-435.025
CUSAT 1 25 May 00:57:07 01:03:58 35° 274° (W) 01:09:55 437.405
SO-50 25 May 01:08:17 01:12:35 32° 113° (ESE) 01:16:56 436.795
AISAT 25 May 01:12:49 01:16:10 21° 265° (W) 01:19:33 437.250
DUCHIFAT 1 25 May 01:16:13 01:20:20 58° 285° (WNW) 01:24:25 145.980
RS-15 25 May 01:17:36 01:27:40 28° 30° (NNE) 01:37:46 29.354- 29.394
SPROUT 25 May 01:19:09 01:23:16 44° 261° (W) 01:27:24 437.525
ISS 25 May 01:27:20 01:28:40 12° 346° (NNW) 01:29:59 145.825
JAS-2 25 May 01:32:49 01:39:43 38° 94° (E) 01:45:55 435.910
GONETS M04 25 May 01:35:56 01:39:02 12° 301° (WNW) 01:42:10
PHONESAT 2.4 25 May 01:36:46 01:39:53 73° 351° (N) 01:43:01 2401.200-2431.200
BEESAT 25 May 01:38:40 01:41:32 16° 64° (ENE) 01:44:24 436.000
UKube-1 25 May 01:38:42 01:41:22 16° 267° (W) 01:44:01 .
Cosmos 2499 25 May 01:41:57 01:45:42 14° 298° (WNW) 01:49:36 435.465 / 435.565
BUGSAT 1 25 May 01:47:40 01:51:38 53° 286° (WNW) 01:55:32 437.445
POPSAT HIP 1 25 May 01:51:26 01:54:40 22° 292° (WNW) 01:57:54 437.405
QB50P1 25 May 01:52:11 01:55:22 21° 292° (WNW) 01:58:33 145.935-145.965
QB50P2 25 May 01:53:28 01:56:32 20° 293° (WNW) 01:59:34 145.880/145.840
TISAT 1 25 May 01:54:44 01:58:56 64° 259° (W) 02:03:09 437.305
POLYITAN 1 25 May 01:55:56 01:58:57 19° 293° (WNW) 02:01:57 437.675
DANDE 25 May 02:04:23 02:10:42 24° 277° (W) 02:16:42 436.750
NANOSAT C BR1 25 May 02:13:21 02:15:28 14° 295° (WNW) 02:17:34 145.865
SWISSCUBE 25 May 02:43:58 02:48:42 82° 77° (ENE) 02:53:30 437.505
Gurwin Techsat 1B 25 May 02:44:49 02:49:23 28° 96° (E) 02:53:55 435.225
Oscar 19 25 May 02:46:23 02:51:34 73° 102° (ESE) 02:56:41 437.125/150
ITUPSAT 1 25 May 02:48:26 02:53:11 81° 74° (ENE) 02:57:58 437.325
SO-50 25 May 02:48:39 02:53:03 32° 310° (NW) 02:57:27 436.795
PHONESAT 2.4 25 May 03:13:39 03:16:46 72° 8° (N) 03:19:53 2401.200-2431.200
BEESAT 25 May 03:14:14 03:18:52 53° 260° (W) 03:23:32 436.000
MOZHAYETS 4 25 May 03:17:28 03:19:51 14° 64° (ENE) 03:22:14
JAS-2 25 May 03:17:43 03:24:41 41° 294° (WNW) 03:31:01 435.910
ITAMSAT 1 25 May 03:21:51 03:26:03 24° 95° (E) 03:30:15 435.822/435.867
KKS-1 25 May 03:22:58 03:26:27 23° 67° (ENE) 03:29:56 437.445
RS-15 25 May 03:30:14 03:42:37 77° 57° (ENE) 03:54:55 29.354- 29.394
YUBILEINY 25 May 03:53:48 04:02:16 51° 77° (ENE) 04:10:44 435.215
STARS 25 May 04:06:22 04:10:19 33° 70° (ENE) 04:14:17 437.465
Gurwin Techsat 1B 25 May 04:24:34 04:29:19 34° 292° (WNW) 04:34:03 435.225
Oscar 19 25 May 04:27:41 04:30:14 14° 299° (WNW) 04:32:46 437.125/150
CUBESAT XI-V 25 May 04:35:54 04:37:04 11° 62° (ENE) 04:38:14 437.345
ISS 25 May 04:41:04 04:43:44 22° 26° (NNE) 04:46:22 145.825
Cosmos 2491 25 May 04:45:29 04:54:03 58° 91° (E) 05:02:38 435.465 / 435.565
AO-7 25 May 04:45:30 04:53:37 51° 102° (ESE) 05:01:41 29.400- 29.500
PHONESAT 2.4 25 May 04:50:31 04:53:26 37° 205° (SSW) 04:56:21 2401.200-2431.200
MOZHAYETS 4 25 May 04:52:04 04:56:31 56° 260° (W) 05:01:01
Cosmos 2504 25 May 04:52:55 05:00:27 35° 73° (ENE) 05:08:16 435.465 / 435.565
KKS-1 25 May 04:58:49 05:02:49 32° 263° (W) 05:06:51 437.445
ITAMSAT 1 25 May 05:00:47 05:05:36 39° 291° (WNW) 05:10:24 435.822/435.867
STARS 25 May 05:43:24 05:46:43 21° 265° (W) 05:50:03 437.465
RS-15 25 May 05:44:01 05:53:57 30° 257° (WSW) 06:03:50 29.354- 29.394
YUBILEINY 25 May 05:51:11 05:58:39 33° 275° (W) 06:06:10 435.215
CUBESAT XI-V 25 May 06:09:06 06:13:44 79° 257° (WSW) 06:18:28 437.345
HORYU 2 25 May 06:17:07 06:21:34 85° 284° (WNW) 06:26:00 437.375
ISS 25 May 06:17:10 06:20:19 46° 223° (SW) 06:23:26 145.825
CUTE-I 25 May 06:17:18 06:18:33 11° 89° (E) 06:19:49 437.470
STRAND 1 25 May 06:20:09 06:22:14 13° 60° (ENE) 06:24:20 437.568
AO-85 25 May 06:33:32 06:38:13 30° 112° (ESE) 06:42:53 145.980
AO-7 25 May 06:38:43 06:46:05 36° 300° (WNW) 06:53:27 29.400- 29.500
NOAA 18 25 May 06:42:07 06:46:35 25° 95° (E) 06:51:02 137.9125
Cosmos 2491 25 May 06:43:51 06:51:19 30° 290° (WNW) 06:58:50 435.465 / 435.565
Cosmos 2504 25 May 06:46:00 06:53:58 49° 270° (W) 07:02:18 435.465 / 435.565
BRITE-PL 25 May 07:01:15 07:06:00 36° 95° (E) 07:10:23 437.365/2234.400
Cubesat XI-IV 25 May 07:06:56 07:11:49 35° 97° (E) 07:16:41 437.490
NOAA 15 25 May 07:12:22 07:17:37 58° 101° (E) 07:22:48 137.62
LilacSat-2 25 May 07:20:02 07:23:38 43° 99° (E) 07:27:15 437.200
GOMX 1 25 May 07:40:41 07:45:09 39° 97° (E) 07:49:18 467.674
CUTE-I 25 May 07:53:50 07:59:12 84° 285° (WNW) 08:04:34 437.470
STRAND 1 25 May 07:55:38 08:00:43 79° 256° (WSW) 08:05:51 437.568
AO-85 25 May 08:13:29 08:18:36 40° 308° (NW) 08:23:38 145.980
NOAA 18 25 May 08:22:15 08:27:20 41° 291° (WNW) 08:32:25 137.9125
BRITE-PL 25 May 08:40:04 08:44:15 25° 294° (WNW) 08:48:09 437.365/2234.400
DOVE 4 25 May 08:43:38 08:48:06 89° 105° (ESE) 08:52:19 437.250
CANX-2 25 May 08:43:56 08:47:34 27° 96° (E) 08:51:13 2200.000
Cubesat XI-IV 25 May 08:47:13 08:51:44 28° 293° (WNW) 08:56:15 437.490
SEEDS 25 May 08:52:37 08:55:51 21° 94° (E) 08:59:05 437.485
NOAA 15 25 May 08:53:26 08:56:53 18° 297° (WNW) 09:00:19 137.62
LilacSat-2 25 May 08:56:01 08:57:34 12° 294° (WNW) 08:59:05 437.200
PRISM 25 May 09:02:45 09:06:53 80° 257° (WSW) 09:11:04 437.425
HO-68 25 May 09:03:50 09:10:42 46° 100° (E) 09:17:31 435.675
CUBEBUG 2 25 May 09:07:43 09:09:35 13° 92° (E) 09:11:27 437.445
CUTE 1.7 + AOD 2 25 May 09:11:21 09:15:30 48° 99° (E) 09:19:38 437.475
GOMX 1 25 May 09:19:32 09:22:53 19° 295° (WNW) 09:26:04 467.674
CINEMA 3 25 May 09:34:29 09:38:41 86° 288° (WNW) 09:42:49 145.822/145.860
Cosmos 2499 25 May 09:35:51 09:43:23 33° 72° (ENE) 09:51:08 435.465 / 435.565
CUTE-I 25 May 09:37:06 09:38:24 11° 301° (WNW) 09:39:40 437.470
AIST 1 25 May 09:37:36 09:41:57 70° 266° (W) 09:46:14
UWE-3 25 May 09:41:01 09:44:14 21° 95° (E) 09:47:29 435.000/436.395/437.385
SO-50 25 May 09:41:01 09:44:44 22° 46° (NE) 09:48:20 436.795
AUBIESAT-1 25 May 09:42:41 09:45:59 64° 289° (WNW) 09:49:14 437.475
COMPASS 1 25 May 09:43:10 09:47:21 57° 100° (E) 09:51:30 437.405
GONETS M04 25 May 09:43:26 09:52:01 59° 78° (ENE) 10:00:32
JUGNU 25 May 09:46:48 09:48:37 11° 180° (S) 09:50:26 437.505
M-CUBED/EXP-1 PRIME 25 May 09:47:04 09:50:12 41° 292° (WNW) 09:53:17 437.505
AAUSAT CUBESAT 2 25 May 09:48:30 09:52:37 52° 100° (E) 09:56:42 437.432
PCSat 25 May 09:50:05 09:53:51 19° 105° (ESE) 09:57:37 145.827
FUNcube-1 25 May 09:53:11 09:56:07 18° 94° (E) 09:59:05 145.935
ANTELSAT 25 May 09:55:15 09:58:12 18° 67° (ENE) 10:01:07 437.575/2403.000
O/OREOS (USA 219) 25 May 10:04:40 10:08:41 31° 104° (ESE) 10:12:43 437.305
CANX-2 25 May 10:19:51 10:23:18 24° 291° (WNW) 10:26:45 2200.000
SEEDS 25 May 10:27:51 10:31:34 30° 289° (WNW) 10:35:16 437.485
Oscar 11 25 May 10:39:51 10:44:13 80° 103° (ESE) 10:48:32 145.826/435.025
DELFI C3 25 May 10:41:15 10:45:00 36° 98° (E) 10:48:44 145.870
CUBEBUG 2 25 May 10:42:28 10:46:27 46° 286° (WNW) 10:50:28 437.445
CUTE 1.7 + AOD 2 25 May 10:48:38 10:50:55 14° 294° (WNW) 10:53:12 437.475
ZACube-1 25 May 10:48:43 10:52:55 89° 108° (ESE) 10:57:09 437.345
UNISAT 6 25 May 10:48:50 10:53:14 71° 75° (ENE) 10:57:32 437.425
HO-68 25 May 10:51:56 10:58:10 33° 297° (WNW) 11:04:23 435.675
TIGRISAT 25 May 10:57:19 11:01:43 83° 78° (ENE) 11:06:03 435.000
POPSAT HIP 1 25 May 11:07:16 11:10:19 19° 67° (ENE) 11:13:21 437.405
QB50P1 25 May 11:07:52 11:10:58 20° 68° (ENE) 11:14:04 145.935-145.965
QB50P2 25 May 11:09:01 11:12:17 22° 68° (ENE) 11:15:32 145.880/145.840
POLYITAN 1 25 May 11:11:26 11:14:43 22° 68° (ENE) 11:18:00 437.675
UWE-3 25 May 11:17:08 11:20:42 28° 290° (WNW) 11:24:17 435.000/436.395/437.385
HUMSAT D 25 May 11:20:24 11:24:25 46° 99° (E) 11:28:27 437.325/437.525
COMPASS 1 25 May 11:20:48 11:22:24 12° 296° (WNW) 11:24:00 437.405
SO-50 25 May 11:20:58 11:25:25 44° 244° (WSW) 11:29:42 436.795
AAUSAT CUBESAT 2 25 May 11:25:44 11:27:37 13° 295° (WNW) 11:29:32 437.432
NANOSAT C BR1 25 May 11:27:07 11:30:51 31° 70° (ENE) 11:34:34 145.865
Cosmos 2499 25 May 11:28:30 11:36:44 54° 270° (W) 11:45:16 435.465 / 435.565
FUNcube-1 25 May 11:28:41 11:32:26 33° 288° (WNW) 11:36:13 145.935
ANTELSAT 25 May 11:30:31 11:34:38 38° 262° (W) 11:38:42 437.575/2403.000
PCSat 25 May 11:31:28 11:36:46 54° 301° (WNW) 11:42:07 145.827
SRMSAT 25 May 11:35:18 11:36:55 11° 178° (S) 11:38:32 437.500
BEESAT 3 25 May 11:35:24 11:36:39 11° 108° (ESE) 11:37:55 437.485
GONETS M04 25 May 11:41:14 11:48:12 28° 277° (W) 11:55:10
O/OREOS (USA 219) 25 May 11:44:22 11:48:06 24° 300° (WNW) 11:51:49 437.305
JAS-2 25 May 11:44:36 11:49:11 18° 56° (NE) 11:53:55 435.910
ESTCUBE 1 25 May 11:54:38 11:58:03 21° 94° (E) 12:01:26 437.505/2401.250
50 SAT 25 May 12:00:49 12:03:03 15° 94° (E) 12:05:17 437.505
DUCHIFAT 1 25 May 12:06:25 12:10:39 85° 76° (ENE) 12:14:53 145.980
CUSAT 1 25 May 12:14:26 12:20:00 44° 89° (E) 12:26:52 437.405
DELFI C3 25 May 12:17:02 12:19:34 16° 293° (WNW) 12:22:06 145.870
Oscar 19 25 May 12:26:52 12:28:31 11° 60° (ENE) 12:30:11 437.125/150
VELOX 1 25 May 12:27:28 12:31:22 30° 97° (E) 12:35:15 145.980
CUBEBUG 1 25 May 12:27:29 12:31:24 31° 97° (E) 12:35:15 437.445
BEESAT 2 25 May 12:30:38 12:34:02 28° 114° (ESE) 12:37:27 435.950
DX 1 25 May 12:31:16 12:35:00 27° 97° (E) 12:38:42 434.975-435.025
BUGSAT 1 25 May 12:35:32 12:39:46 85° 75° (ENE) 12:43:58 437.445
POPSAT HIP 1 25 May 12:41:59 12:45:51 33° 262° (W) 12:49:43 437.405
QB50P1 25 May 12:42:42 12:46:31 32° 263° (W) 12:50:21 145.935-145.965
QB50P2 25 May 12:44:11 12:47:55 30° 263° (W) 12:51:39 145.880/145.840
POLYITAN 1 25 May 12:46:39 12:50:21 29° 263° (W) 12:54:04 437.675
HUMSAT D 25 May 12:57:28 12:59:39 14° 294° (WNW) 13:01:50 437.325/437.525
AISAT 25 May 13:02:49 13:07:17 82° 104° (ESE) 13:11:40 437.250
NANOSAT C BR1 25 May 13:03:26 13:06:36 20° 266° (W) 13:09:46 145.865
SPROUT 25 May 13:06:23 13:10:12 32° 97° (E) 13:14:00 437.525
BEESAT 3 25 May 13:09:59 13:13:51 55° 304° (NW) 13:17:45 437.485
UKube-1 25 May 13:24:55 13:29:17 88° 275° (W) 13:33:35 .
JAS-2 25 May 13:25:46 13:32:56 85° 75° (ENE) 13:40:47 435.910
DANDE 25 May 13:27:08 13:32:08 80° 97° (E) 13:38:52 436.750
ESTCUBE 1 25 May 13:30:47 13:34:55 35° 289° (WNW) 13:39:02 437.505/2401.250
50 SAT 25 May 13:33:32 13:36:51 31° 288° (WNW) 13:40:11 437.505
TISAT 1 25 May 13:40:36 13:43:44 20° 95° (E) 13:46:50 437.305
AO-7 25 May 13:56:24 13:59:57 13° 47° (NE) 14:03:30 29.400- 29.500
CUSAT 1 25 May 13:56:55 14:02:19 31° 292° (WNW) 14:08:48 437.405
Oscar 19 25 May 14:01:50 14:07:03 89° 255° (WSW) 14:12:17 437.125/150
CUBEBUG 1 25 May 14:04:07 14:07:29 22° 293° (WNW) 14:10:50 437.445
VELOX 1 25 May 14:04:11 14:07:40 23° 292° (WNW) 14:11:09 145.980
Gurwin Techsat 1B 25 May 14:04:36 14:09:31 41° 70° (ENE) 14:14:28 435.225
DX 1 25 May 14:07:31 14:11:04 25° 292° (WNW) 14:14:35 434.975-435.025
BEESAT 2 25 May 14:08:33 14:11:51 24° 310° (NW) 14:15:10 435.950
AIST 2 25 May 14:19:05 14:22:30 26° 113° (ESE) 14:25:56 435.215
ITAMSAT 1 25 May 14:38:35 14:43:10 33° 68° (ENE) 14:47:46 435.822/435.867
SPROUT 25 May 14:42:48 14:45:56 20° 293° (WNW) 14:49:04 437.525
SWISSCUBE 25 May 14:46:00 14:49:47 23° 95° (E) 14:53:33 437.505
ITUPSAT 1 25 May 14:50:47 14:54:33 23° 95° (E) 14:58:19 437.325
Cosmos 2491 25 May 14:58:02 15:05:07 26° 68° (ENE) 15:12:08 435.465 / 435.565
AO-85 25 May 15:07:13 15:10:32 18° 43° (NE) 15:13:38 145.980
DANDE 25 May 15:13:07 15:16:17 15° 302° (WNW) 15:19:51 436.750
JAS-2 25 May 15:14:17 15:18:51 18° 273° (W) 15:23:39 435.910
BEESAT 25 May 15:15:27 15:19:59 41° 99° (E) 15:24:30 436.000
TISAT 1 25 May 15:15:45 15:19:24 30° 290° (WNW) 15:23:01 437.305
AO-7 25 May 15:42:57 15:51:03 62° 67° (ENE) 15:59:14 29.400- 29.500
Gurwin Techsat 1B 25 May 15:45:23 15:49:34 24° 266° (W) 15:53:48 435.225
AIST 2 25 May 15:57:18 16:00:53 28° 309° (NW) 16:04:30 435.215
ITAMSAT 1 25 May 16:18:14 16:22:37 28° 264° (W) 16:27:01 435.822/435.867
SWISSCUBE 25 May 16:23:16 16:27:37 35° 290° (WNW) 16:31:57 437.505
ITUPSAT 1 25 May 16:28:04 16:32:27 36° 290° (WNW) 16:36:48 437.325
AO-85 25 May 16:46:54 16:51:24 54° 244° (WSW) 16:55:29 145.980
MOZHAYETS 4 25 May 16:48:14 16:52:31 36° 97° (E) 16:56:47
KKS-1 25 May 16:50:23 16:54:43 51° 100° (E) 16:59:00 437.445
YUBILEINY 25 May 16:52:52 17:01:21 61° 91° (E) 17:09:51 435.215
Cosmos 2491 25 May 16:53:57 17:02:35 64° 268° (W) 17:11:07 435.465 / 435.565
BEESAT 25 May 16:54:00 16:57:28 20° 294° (WNW) 17:00:55 436.000
NOAA 15 25 May 16:56:28 16:57:31 11° 58° (ENE) 16:58:34 137.62
HORYU 2 25 May 17:13:40 17:18:04 75° 75° (ENE) 17:22:30 437.375
Cosmos 2504 25 May 17:31:45 17:37:23 25° 83° (E) 17:43:12 435.465 / 435.565
STARS 25 May 17:32:35 17:36:58 77° 102° (ESE) 17:41:19 437.465
CUTE-I 25 May 17:36:50 17:40:18 18° 63° (ENE) 17:43:46 437.470
AO-7 25 May 17:37:30 17:44:15 28° 265° (W) 17:51:05 29.400- 29.500
RS-15 25 May 17:51:40 18:02:27 55° 111° (ESE) 18:13:48 29.354- 29.394
LilacSat-2 25 May 18:01:37 18:04:20 19° 69° (ENE) 18:07:02 437.200
NOAA 18 25 May 18:07:03 18:12:10 43° 69° (ENE) 18:17:18 137.9125
CUBESAT XI-V 25 May 18:07:15 18:11:20 28° 95° (E) 18:15:22 437.345
BRITE-PL 25 May 18:09:30 18:14:40 40° 70° (ENE) 18:19:56 437.365/2234.400
MOZHAYETS 4 25 May 18:25:58 18:29:26 21° 293° (WNW) 18:32:53
Cubesat XI-IV 25 May 18:27:41 18:32:48 51° 71° (ENE) 18:37:57 437.490
KKS-1 25 May 18:28:23 18:30:50 15° 296° (WNW) 18:33:16 437.445
NOAA 15 25 May 18:31:07 18:36:25 83° 75° (ENE) 18:41:45 137.62
PCSat 25 May 18:38:33 18:41:41 15° 44° (NE) 18:44:48 145.827
GOMX 1 25 May 18:46:13 18:51:22 42° 72° (ENE) 18:56:28 467.674
YUBILEINY 25 May 18:51:31 18:58:39 28° 291° (WNW) 19:05:52 435.215
AUBIESAT-1 25 May 18:56:15 18:57:09 11° 60° (ENE) 18:58:02 437.475
M-CUBED/EXP-1 PRIME 25 May 18:59:17 19:01:40 15° 62° (ENE) 19:03:57 437.505
CUTE-I 25 May 19:14:39 19:19:51 58° 259° (W) 19:25:06 437.470
Cosmos 2504 25 May 19:23:14 19:30:11 52° 283° (WNW) 19:37:31 435.465 / 435.565
HO-68 25 May 19:31:41 19:37:44 31° 62° (ENE) 19:43:50 435.675
LilacSat-2 25 May 19:35:12 19:38:27 27° 264° (W) 19:41:43 437.200
CANX-2 25 May 19:36:24 19:39:08 17° 67° (ENE) 19:41:51 2200.000
SEEDS 25 May 19:44:34 19:46:31 13° 65° (ENE) 19:48:28 437.485
CUBESAT XI-V 25 May 19:44:38 19:48:37 27° 291° (WNW) 19:52:34 437.345
DOVE 4 25 May 19:46:31 19:51:47 78° 76° (ENE) 19:56:55 437.250
BRITE-PL 25 May 19:48:25 19:53:09 28° 266° (W) 19:58:00 437.365/2234.400
NOAA 18 25 May 19:48:40 19:52:58 23° 265° (W) 19:57:17 137.9125
CUTE 1.7 + AOD 2 25 May 20:03:02 20:06:40 29° 70° (ENE) 20:10:18 437.475
RS-15 25 May 20:04:16 20:15:08 47° 315° (NW) 20:26:38 29.354- 29.394
CUBEBUG 2 25 May 20:06:11 20:07:09 11° 64° (ENE) 20:08:07 437.445
STRAND 1 25 May 20:07:29 20:12:18 38° 98° (E) 20:17:04 437.568
Cubesat XI-IV 25 May 20:09:31 20:13:08 19° 267° (W) 20:16:48 437.490
O/OREOS (USA 219) 25 May 20:15:22 20:19:44 49° 65° (ENE) 20:24:03 437.305
NOAA 15 25 May 20:15:26 20:16:47 11° 271° (W) 20:18:08 137.62
PCSat 25 May 20:20:22 20:25:50 89° 239° (WSW) 20:31:15 145.827
GOMX 1 25 May 20:25:06 20:29:31 25° 266° (W) 20:33:55 467.674
AUBIESAT-1 25 May 20:27:00 20:31:13 67° 254° (WSW) 20:35:10 437.475
M-CUBED/EXP-1 PRIME 25 May 20:31:45 20:35:55 47° 255° (WSW) 20:39:50 437.505
COMPASS 1 25 May 20:32:52 20:36:33 32° 71° (ENE) 20:40:14 437.405
CINEMA 3 25 May 20:34:05 20:38:54 75° 75° (ENE) 20:43:31 145.822/145.860
UWE-3 25 May 20:37:37 20:40:19 16° 67° (ENE) 20:43:00 435.000/436.395/437.385
AAUSAT CUBESAT 2 25 May 20:37:46 20:41:19 29° 71° (ENE) 20:44:54 437.432
PRISM 25 May 20:46:51 20:49:18 15° 93° (E) 20:51:44 437.425
FUNcube-1 25 May 20:48:47 20:50:49 13° 65° (ENE) 20:52:48 145.935
BEESAT 2 25 May 20:50:21 20:52:35 14° 45° (NE) 20:54:48 435.950
GONETS M04 25 May 20:53:36 20:55:59 11° 74° (ENE) 20:58:22
CANX-2 25 May 21:10:46 21:14:40 38° 262° (W) 21:18:37 2200.000
SEEDS 25 May 21:17:43 21:21:46 50° 260° (W) 21:25:51 437.485
HO-68 25 May 21:18:16 21:25:09 50° 260° (W) 21:32:03 435.675
DELFI C3 25 May 21:26:50 21:29:37 19° 68° (ENE) 21:32:24 145.870
DOVE 4 25 May 21:28:06 21:29:55 12° 271° (W) 21:31:44 437.250
BEESAT 3 25 May 21:28:17 21:32:11 54° 56° (NE) 21:36:02 437.485
Oscar 11 25 May 21:33:11 21:37:20 51° 74° (ENE) 21:41:31 145.826/435.025
CUBEBUG 2 25 May 21:38:48 21:43:14 69° 259° (WSW) 21:47:33 437.445
CUTE 1.7 + AOD 2 25 May 21:39:17 21:42:30 21° 266° (W) 21:45:44 437.475
